{"data":{"norad_id":51949,"intl_designator":"2022-023D","name":"2022-023D","alt_names":[],"object_type":"PAYLOAD","status":"ACTIVE","operator":null,"country":"PRC","launch_date":"2022-03-05","launch_site_code":"XICLF","launch_vehicle":null,"mission":null,"orbit_class":"UNKNOWN","rcs_meters":null,"size_class":null,"mass_kg":null,"dimensions":null,"purposes":[],"wikipedia_slug":null,"has_3d_model":false,"image_url":null,"decayed_at":null,"tle_current":{"epoch":"2026-09-20T23:26:08.101824Z","epoch_age_seconds":77634,"freshness":"FRESH","line1":"1 51949U 22023D   26263.97648266  .00017396  00000+0  67820-3 0  9995","line2":"2 51949  63.4474 306.1334 0135266 352.7487   7.1664 15.17944329252252","mean_motion":15.17944329,"eccentricity":0.0135266,"inclination_deg":63.4474,"raan_deg":306.1334,"arg_perigee_deg":352.7487,"mean_anomaly_deg":7.1664,"bstar":0.0006782,"rev_number":25225,"period_min":94.865139154916,"perigee_km":418.85341943084,"apogee_km":605.25514218884,"semimajor_km":6890.1912808098,"source":"CELESTRAK","updated_at":"2026-09-21T09:00:08.415756Z"}}}